KUIPER-00584

导读

KUIPER-00584(NORAD编号69274)是亚马逊柯伊伯(Project Kuiper)低轨互联网星座的组网卫星,隶属于美国亚马逊公司的全球网络覆盖项目。该卫星属于柯伊伯星座后批次发射的组网星,部署于距地约630公里的低地球轨道,轨道倾角约51.9度,轨道周期约97分钟,设计目标是为全球偏远、网络覆盖不足区域提供高带宽、低延迟的互联网接入服务。截至2026年6月,该卫星处于在轨运行状态,是亚马逊推进全球卫星互联网组网的重要组成单元。

基本信息
目录编号:
69274
目录名称:
KUIPER-00584
国际标识:
2026-118H
轨道中心:
EARTH
卫星名称:
KUIPER-00584
卫星全名:
KUIPER-00584
卫星状态:
在轨 (已飞行106 天)
发射日期:
2026-05-29 UTC
国别 :
美国 (US)
星等 :
--
该卫星已列入 空间交会检测服务 Space Conjunction Data Service (SCDS) ,当前飞行风险评估等级: 无高风险
轨道信息
数据来源 国际轨道数据 AOE轨道数据
星历时间 2026-09-11T22:55:51+0800
15小时前
查看轨道信息
2026-09-06T10:00:00+0800
6天前
查看轨道信息
半长轴 7007.693km 7007.673km
偏心率 0.0000512 0.0000551
轨道倾角 51.901° 51.901°
近地点辐角 115.755° 123.962°
升交点赤经 23.559° 48.052°
平近点角 244.346° 229.064°
近地点 629.197km 629.149km
远地点 629.915km 629.923km
周期 97.302分钟 97.302分钟
每日圈数 14.799268 14.799331
详细信息
使用方式:
暂无
2D轨道图
3D轨道图
轨道高度分析图
轨道倾角分析图
轨道综合分析图
查看轨道综合分析图
交会数据列表
事件ID 空间交会对象 最接近时刻(TCA) 交会距离 交会风险概率(CRP) 交会风险指数(CRI) 操作
CDM_260912-051806-512106-927423
2026-09-12T
05:18:13+0000
1.741 km
极远距离
3.159508E-6 低风险 0.45
与全量物体交会距离演化趋势
与全量物体交会风险概率演化趋势